Location: Les Bellons
(44.2749°N, 5.8657°E)
Time: 02:59:14
(UTC+00:00)

Daily predictions for brighter satellites

Satellite Brightness Start Highest point End
(mag) Time Altitude Azimuth Time Altitude Azimuth Time Altitude Azimuth
CENTAUR R/B 4.4 02:03:00 25° ENE 02:03:00 25° ENE 02:06:13 10° NE
Cosmos 2344 3.8 02:37:40 62° NE 02:37:40 62° NE 02:44:07 10° NE
USA 238 DEB 4.5 02:41:03 45° NE 02:41:03 45° NE 02:45:37 10° NE
USA 238 4.5 02:41:08 45° NE 02:41:08 45° NE 02:45:44 10° NE
ATLAS 3B R/B 4.4 02:45:39 18° SE 02:48:34 24° ESE 02:53:40 10° ENE
Cosmos 1980 Rocket 4.5 02:54:52 10° N 02:58:56 20° NE 03:02:59 10° E
USA 234 4.0 02:54:15 10° NE 02:59:22 42° N 02:59:22 42° N
ADEOS Rocket 3.8 02:56:01 10° SE 03:01:09 43° ENE 03:06:26 10° N
Cosmos 1833 Rocket 3.0 03:33:50 47° S 03:35:19 65° ESE 03:40:56 10° NNE
CZ-4B R/B 3.8 03:32:53 10° ESE 03:35:40 23° ENE 03:37:09 17° NNE
ALOS 4.1 03:31:36 10° NE 03:35:41 29° E 03:39:44 10° SSE
Cosmos 1626 3.6 03:39:54 35° E 03:39:54 35° E 03:43:19 10° NNE
NOSS 3-2 (C) 3.6 03:43:22 52° NW 03:43:22 52° NW 03:49:34 10° NNE
CENTAUR R/B 2.7 03:50:11 50° WNW 03:50:37 51° NW 03:57:34 10° NNE
Cosmos 2369 3.9 03:49:30 18° NNW 03:53:50 71° ENE 03:59:27 10° SSE
Cosmos 1656 3.9 03:55:16 50° SW 03:55:16 50° SW 03:59:55 10° S
Cosmos 1484 Rocket 3.9 03:54:32 10° NNE 03:58:14 43° E 04:01:50 10° S
Cosmos 2082 Rocket 2.8 03:52:47 10° S 03:58:14 56° ESE 04:03:44 10° NNE
Cosmos 1461 3.2 03:57:49 55° S 03:58:42 73° ESE 04:03:24 10° NE
CBERS 1 LM4 rocket 4.3 03:54:04 10° NNE 03:59:00 83° ESE 04:02:24 19° SSW
PSLV R/B 4.2 04:02:28 10° N 04:05:31 41° NNW 04:05:31 41° NNW
SL-16 R/B 4.5 04:02:49 10° N 04:07:03 21° NE 04:11:16 10° E
USA 290 3.2 04:06:41 43° SE 04:07:07 46° ESE 04:10:15 10° NNE
ISS -3.0 04:09:06 48° NNE 04:09:06 48° NNE 04:11:43 10° NE
CZ-2C R/B 2.4 04:03:29 10° N 04:08:22 57° WNW 04:08:51 55° W
Cosmos 2251 Rocket 4.0 04:04:14 10° S 04:09:31 62° ESE 04:14:48 10° NNE
Lacrosse 4 Rocket 2.9 04:18:22 22° NNW 04:18:22 22° NNW 04:20:32 10° N
Cosmos 1697 Rocket 2.6 04:16:50 20° NW 04:20:45 63° WSW 04:26:19 10° S
Meteor 1-31 Rocket 3.2 04:19:06 10° NNE 04:23:01 63° E 04:26:55 10° S
COSMOS 2406 3.5 04:21:37 37° W 04:23:04 44° WNW 04:28:29 10° NNE
[s.n.46727] 3.0 04:25:26 57° NE 04:25:26 57° NE 04:27:43 10° NE
[s.n.46723] 2.9 04:25:27 61° NE 04:25:27 61° NE 04:27:50 10° NE
[s.n.46707] 3.0 04:25:36 57° NE 04:25:36 57° NE 04:27:54 10° NE
[s.n.46708] 3.0 04:25:41 57° NE 04:25:41 57° NE 04:27:59 10° NE
[s.n.46719] 3.0 04:25:47 57° NE 04:25:47 57° NE 04:28:05 10° NE
[s.n.46724] 3.0 04:25:52 58° NE 04:25:52 58° NE 04:28:10 10° NE
[s.n.46687] 3.0 04:25:57 58° NE 04:25:57 58° NE 04:28:15 10° NE
[s.n.46696] 3.0 04:26:02 58° NE 04:26:02 58° NE 04:28:21 10° NE
[s.n.46720] 3.0 04:26:08 58° NE 04:26:08 58° NE 04:28:26 10° NE
[s.n.46676] 2.9 04:26:12 58° NE 04:26:12 58° NE 04:28:32 10° NE
Lacrosse 5 rocket 1.5 04:25:46 43° NW 04:25:47 43° NW 04:29:25 10° NE
[s.n.46721] 2.9 04:26:18 59° NE 04:26:18 59° NE 04:28:37 10° NE
[s.n.46728] 2.9 04:26:23 59° NE 04:26:23 59° NE 04:28:42 10° NE
[s.n.46690] 2.9 04:26:28 59° NE 04:26:28 59° NE 04:28:48 10° NE
[s.n.46694] 2.9 04:26:32 59° NE 04:26:32 59° NE 04:28:52 10° NE
[s.n.46702] 2.9 04:26:39 59° NE 04:26:39 59° NE 04:28:59 10° NE
[s.n.46679] 2.9 04:26:42 59° NE 04:26:42 59° NE 04:29:03 10° NE
[s.n.46704] 2.8 04:26:44 63° NE 04:26:44 63° NE 04:29:09 10° NE
[s.n.46712] 2.9 04:26:50 60° NE 04:26:50 60° NE 04:29:11 10° NE
[s.n.46711] 2.9 04:26:59 60° NE 04:26:59 60° NE 04:29:20 10° NE
[s.n.46684] 2.9 04:27:01 60° NE 04:27:01 60° NE 04:29:22 10° NE
Meteor 2-5 Rocket 3.6 04:20:58 10° SSW 04:26:39 76° W 04:32:30 10° N
[s.n.46706] 2.9 04:27:09 60° NE 04:27:09 60° NE 04:29:31 10° NE
[s.n.46678] 2.8 04:27:07 64° NE 04:27:07 64° NE 04:29:35 10° NE
[s.n.46677] 2.9 04:27:17 60° NE 04:27:17 60° NE 04:29:38 10° NE
[s.n.46671] 2.9 04:27:22 61° NE 04:27:22 61° NE 04:29:44 10° NE
[s.n.46675] 2.8 04:27:27 61° NE 04:27:27 61° NE 04:29:50 10° NE
[s.n.46674] 2.8 04:27:33 61° NE 04:27:33 61° NE 04:29:55 10° NE
[s.n.46698] 2.8 04:27:38 61° NE 04:27:38 61° NE 04:30:01 10° NE
[s.n.46699] 2.8 04:27:39 64° NE 04:27:39 64° NE 04:30:07 10° NE
[s.n.46715] 2.8 04:27:48 62° NE 04:27:48 62° NE 04:30:12 10° NE
[s.n.46714] 2.8 04:27:53 62° NE 04:27:53 62° NE 04:30:17 10° NE
[s.n.46726] 2.8 04:27:59 62° NE 04:27:59 62° NE 04:30:23 10° NE
[s.n.46703] 2.8 04:28:04 62° NE 04:28:04 62° NE 04:30:27 10° NE
CZ-4B R/B 4.4 04:23:52 10° NNE 04:27:44 40° E 04:31:45 10° S
[s.n.46713] 2.8 04:28:09 62° NE 04:28:09 62° NE 04:30:33 10° NE
[s.n.46717] 2.8 04:28:14 62° NE 04:28:14 62° NE 04:30:39 10° NE
[s.n.46691] 2.7 04:28:16 66° NNE 04:28:16 66° NNE 04:30:46 10° NE
[s.n.46693] 2.8 04:28:25 63° NNE 04:28:25 63° NNE 04:30:50 10° NE
[s.n.46672] 2.8 04:28:30 63° NNE 04:28:30 63° NNE 04:30:55 10° NE
[s.n.46701] 2.8 04:28:35 63° NNE 04:28:35 63° NNE 04:31:01 10° NE
[s.n.46685] 2.8 04:28:41 63° NNE 04:28:41 63° NNE 04:31:06 10° NE
[s.n.46709] 2.8 04:28:46 63° NNE 04:28:46 63° NNE 04:31:12 10° NE
[s.n.46683] 2.8 04:28:50 64° NNE 04:28:50 64° NNE 04:31:16 10° NE
[s.n.46695] 2.7 04:28:55 64° NNE 04:28:55 64° NNE 04:31:21 10° NE
[s.n.46688] 2.7 04:29:02 64° NNE 04:29:02 64° NNE 04:31:28 10° NE
[s.n.46729] 2.7 04:29:06 64° NNE 04:29:06 64° NNE 04:31:33 10° NE
[s.n.46697] 2.7 04:29:09 64° NNE 04:29:09 64° NNE 04:31:36 10° NE
[s.n.46725] 2.7 04:29:14 64° NNE 04:29:14 64° NNE 04:31:41 10° NE
[s.n.46682] 2.7 04:29:19 64° NNE 04:29:19 64° NNE 04:31:46 10° NE
[s.n.46680] 2.7 04:29:25 64° NNE 04:29:25 64° NNE 04:31:52 10° NE
[s.n.46718] 2.7 04:29:30 65° NNE 04:29:30 65° NNE 04:31:58 10° NE
[s.n.46710] 2.7 04:29:35 65° NNE 04:29:35 65° NNE 04:32:03 10° NE
[s.n.46673] 2.7 04:29:45 65° NNE 04:29:45 65° NNE 04:32:14 10° NE
[s.n.46700] 2.7 04:29:51 65° NNE 04:29:51 65° NNE 04:32:20 10° NE
[s.n.46705] 2.7 04:29:56 65° NNE 04:29:56 65° NNE 04:32:25 10° NE
[s.n.46692] 2.7 04:30:02 65° NNE 04:30:02 65° NNE 04:32:31 10° NE
[s.n.46686] 2.7 04:30:07 66° NNE 04:30:07 66° NNE 04:32:37 10° NE
[s.n.46716] 2.7 04:30:12 66° NNE 04:30:12 66° NNE 04:32:42 10° NE
[s.n.46722] 2.7 04:30:17 66° NNE 04:30:17 66° NNE 04:32:47 10° NE
[s.n.46689] 2.7 04:30:23 66° NNE 04:30:23 66° NNE 04:32:53 10° NE
[s.n.46681] 2.7 04:30:28 66° NNE 04:30:28 66° NNE 04:32:58 10° NE
FENGYUN 3A 3.6 04:25:00 10° NNE 04:30:28 84° WNW 04:35:54 10° SSW
SAR-Lupe-4 3.4 04:33:17 10° SSE 04:36:51 88° WSW 04:40:27 10° NNW
ATLAS 3B R/B 2.5 04:32:59 15° SW 04:38:38 70° NW 04:45:18 10° NNE
ERS-2 2.5 04:35:19 10° S 04:38:44 39° W 04:39:17 36° WNW
Cosmos 1726 Rocket 3.5 04:35:57 10° NNW 04:40:24 71° W 04:44:50 10° S
USA 234 4.4 04:37:01 10° NE 04:42:29 29° N 04:46:42 15° NW
Cosmos 967 Rocket 4.5 04:37:13 12° NW 04:42:56 59° WSW 04:49:03 10° SSE
Cosmos 1980 Rocket 2.1 04:37:58 10° NNW 04:43:35 76° WSW 04:49:09 10° SSE
ATLAS CENTAUR R/B 4.0 04:41:40 10° SSE 04:44:34 20° ESE 04:47:23 10° ENE
Abrixas rocket 1.7 04:43:59 50° WNW 04:44:37 85° SSW 04:47:27 10° ESE
Meteor 2-13 Rocket 4.4 04:38:54 10° SSW 04:44:58 61° WNW 04:51:04 10° N
Cosmos 2228 3.3 04:41:20 10° NNW 04:45:30 45° W 04:49:40 10° SSW
Cosmos 1092 Rocket 3.9 04:39:47 10° SSW 04:45:55 69° W 04:52:09 10° N
Geosat 4.2 04:41:13 10° S 04:46:03 48° WSW 04:50:56 10° NW
ADEOS Rocket 3.6 04:42:25 10° SSW 04:46:57 26° W 04:51:33 10° NW
Nadezhda 4 Rocket 4.3 04:44:38 10° SW 04:50:19 39° WNW 04:56:03 10° N
ADEOS 3.7 04:46:22 10° N 04:51:27 52° WNW 04:56:30 10° SW
Aureole 3 3.7 04:49:45 10° NNW 04:54:00 77° W 04:59:25 10° S
CZ-3 R/B 3.9 04:35:59 13° WSW 04:54:23 36° SSW 05:01:22 10° SE
SAR-Lupe-1 4.1 04:51:15 10° S 04:54:45 56° WSW 04:58:17 10° NNW
Cosmos 1606 Rocket 4.1 04:52:02 10° NNW 04:56:10 37° W 05:00:17 10° SSW
Cosmos 1400 Rocket 2.8 04:53:03 10° NNW 04:56:53 51° W 05:00:39 10° S
CZ-4B R/B 4.0 04:53:04 10° N 04:57:10 52° WNW 05:01:03 10° SSW
NOSS 8 (A) 4.0 04:54:41 10° SW 04:58:04 82° NW 05:01:03 10° NE
TELKOM 3 4.3 05:01:47 22° W 05:03:37 48° NNW 05:07:28 10° ENE
COSMO-SKYMED 1 2.5 05:00:42 10° S 05:04:59 65° WSW 05:09:20 10° NNW
CZ-4B R/B 2.7 05:05:05 10° SSW 05:07:50 22° W 05:10:16 12° NW
Cosmos 1300 3.6 05:07:03 10° NNW 05:10:19 27° W 05:13:32 10° SSW
ARGOS Delta rocket 4.3 05:05:20 10° N 05:10:37 55° WNW 05:15:57 10° SSW
ALOS 3.0 05:08:57 10° N 05:13:04 31° WNW 05:17:10 10° SW
Cosmos 2278 4.1 05:08:37 10° NW 05:13:54 42° WSW 05:19:10 10° S
Cosmos 1689 Rocket 2.5 05:11:41 10° S 05:14:27 39° W 05:17:13 10° NNW
Meteor 2-10 Rocket 3.4 05:10:09 10° NNW 05:15:12 87° WSW 05:20:18 10° S
Cosmos 1626 3.7 05:14:34 15° W 05:15:18 15° WNW 05:17:35 10° NNW
Cosmos 2322 Rocket 3.2 05:10:03 10° NNW 05:15:34 49° ENE 05:21:01 10° SE
Cosmos 1833 Rocket 3.8 05:15:37 11° W 05:19:44 23° NW 05:24:11 10° N
MOS 1 Rocket 4.0 05:16:08 10° SSE 05:20:16 52° ENE 05:24:27 10° N
Meteor 2-8 Rocket 4.5 05:14:51 10° NNW 05:20:56 62° W 05:26:58 10° S
deb Chang Zheng 4 4.5 05:19:31 10° N 05:23:04 26° WNW 05:26:35 10° WSW
Cosmos 2084 3.8 05:20:02 10° WSW 05:24:11 44° NW 05:28:26 10° NNE
H-2A R/B 3.0 05:23:55 10° NNE 05:28:17 67° E 05:32:28 10° S
Cosmos 1315 Rocket 2.8 05:24:37 10° NNW 05:28:43 69° W 05:32:49 10° S
Okean 1-7 Rocket 4.1 05:25:50 10° SW 05:30:03 37° WNW 05:34:16 10° N
Cosmos 2058 Rocket 3.8 05:26:38 10° NNW 05:30:39 33° W 05:34:38 10° SSW
SL-27 R/B 3.1 05:27:37 10° S 05:31:10 63° ESE 05:34:45 10° NNE
Cosmos 1484 Rocket 4.4 05:29:57 10° NNW 05:32:16 15° WNW 05:34:33 10° WSW
H-2A R/B 2.7 05:31:16 10° N 05:35:05 74° WNW 05:38:56 10° SSW
Cosmos 1553 Rocket 4.0 05:32:09 10° NNW 05:38:07 58° W 05:44:02 10° S
Meteor 2-15 Rocket 4.4 05:36:22 10° N 05:42:30 79° W 05:48:34 10° S
ATLAS 5 CENTAUR R/B 4.4 05:36:27 10° SSW 05:51:11 53° SE 05:55:19 10° NE
